x

Kaunakakai, Molokai Airport (91186) Weather Station

9:54pm - Sat 21st Oct 2017 All times are HST. -10 hours from GMT.

  • Wind
    12mph
  • Air Temp 75°f
  • Sea Pressure 1017.6mb
  • Kaunakakai, Molokai Airport
  • Kaunakakai, Molokai Airport

More Historic Weather Station data

Upgrade to MSW Pro to gain access to the past 30 days of data for over 8000 Wavebouys and Weather Stations around the globe.

Join

Comparision Forecast

View Surf forecast
   
Sat 10/21 9:54pm 12
mph
1017.6mb 75f
9:01pm 9
mph
1017.6mb 75f
8:54pm 8
mph
1017.6mb 75f
8:50pm 8
mph
1017.6mb 75f
7:54pm 10
mph
1017.3mb 76f
6:54pm 14
mph
1016.6mb 77f
5:54pm 14 22 mph 1015.9mb 77f
4:54pm 17 27 mph 1015.2mb 80f
3:54pm 18 29 mph 1014.9mb 81f
2:54pm 18 28 mph 1014.9mb 81f
1:54pm 16 28 mph 1015.2mb 82f
12:54pm 18 28 mph 1015.9mb 82f
11:54am 16 25 mph 1016.9mb 83f
10:54am 21 28 mph 1017.6mb 81f
9:54am 18 25 mph 1018.3mb 80f
8:54am 10 24 mph 1018mb 78f
7:54am 12 22 mph 1016.9mb 77f
6:54am 13 16 mph 1016.6mb 74f
5:54am 9
mph
1016.3mb 75f
4:54am 8
mph
1016.3mb 75f
3:54am 10 20 mph 1016.3mb 75f
2:54am 10 21 mph 1016.6mb 75f
1:54am 9 20 mph 1016.9mb 75f
12:54am 13 22 mph 1017.6mb 76f
Fri 10/20 11:54pm 12
mph
1018.3mb 76f
10:54pm 6
mph
1018.3mb 76f
9:54pm  -  mph 1018.3mb 76f
8:54pm 14 24 mph 1017.3mb 76f
7:54pm 12 29 mph 1016.9mb 76f
7:22pm 15 30 mph 1016.3mb 76f
7:15pm 17 30 mph 1016.3mb 76f
6:54pm 15 25 mph 1016.3mb 76f
5:54pm 12 29 mph 1015.9mb 77f
4:54pm 14 28 mph 1015.9mb 79f
4:08pm 18 31 mph 1015.9mb 80f
4:01pm 17 27 mph 1015.9mb 80f
3:54pm 18 31 mph 1015.9mb 79f
3:09pm 17 32 mph 1015.6mb 81f
3:01pm 20 30 mph 1015.6mb 80f
2:54pm 18 35 mph 1015.6mb 80f
1:54pm 18 28 mph 1015.9mb 81f
1:12pm 16 35 mph 1016.3mb 82f
1:01pm 18 31 mph 1016.3mb 80f
12:54pm 18 30 mph 1016.6mb 81f
11:54am 15 29 mph 1017.3mb 83f
10:54am 15 27 mph 1018mb 80f
9:54am 15 28 mph 1018.6mb 81f
8:54am 15 29 mph 1018.6mb 79f
7:54am 21 31 mph 1018.3mb 78f
7:05am 13 27 mph 1018mb 75f
6:54am 15 25 mph 1018mb 75f
6:28am 15 32 mph 1018mb 75f
5:54am 17 28 mph 1018mb 75f
5:49am 20 28 mph 1018mb 75f
5:06am 21 28 mph 1017.6mb 74f
4:54am 23 32 mph 1017.6mb 74f
3:54am 18 27 mph 1017.6mb 75f
3:51am 18 27 mph 1017.6mb 75f
2:54am 20 29 mph 1018.3mb 75f
1:54am 16 28 mph 1018.3mb 76f
1:13am 14 27 mph 1019mb 76f
12:54am 18 29 mph 1019mb 76f
Thu 10/19 11:54pm 16 28 mph 1019.6mb 76f
11:05pm 20 31 mph 1019.6mb 77f
10:54pm 23 35 mph 1019.6mb 77f
10:24pm 15 25 mph 1020mb 76f
9:54pm  -  mph 1020mb 76f
8:54pm 15 24 mph 1020mb 76f
8:19pm 13 24 mph 1019.6mb 76f
8:05pm 20 29 mph 1020mb 76f
7:54pm 22 29 mph 1020mb 76f
7:52pm 20 29 mph 1019.6mb 75f
6:54pm 17 24 mph 1019mb 76f
5:54pm 13 30 mph 1018.3mb 74f
4:54pm 15 30 mph 1018mb 79f
3:54pm 14 30 mph 1018mb 81f
2:54pm 18 36 mph 1018.3mb 77f
2:13pm 22 31 mph 1018.3mb 82f
1:54pm 22 33 mph 1018.3mb 82f
12:54pm 22 28 mph 1019.3mb 83f
11:54am 27 38 mph 1019.6mb 83f
10:54am 23 33 mph 1020mb 83f
9:54am 27 32 mph 1020mb 81f
8:54am 22 32 mph 1020mb 80f
7:54am 22 31 mph 1020mb 77f
6:54am 14 24 mph 1020mb 75f
5:54am 14 28 mph 1019mb 75f
4:54am 17 28 mph 1019mb 75f
3:54am 15 21 mph 1019mb 74f
2:54am 10 17 mph 1018.6mb 73f
1:54am 16 24 mph 1019.3mb 75f
12:54am 16 20 mph 1019.6mb 75f
Wed 10/18 11:54pm 17 25 mph 1020mb 75f
10:54pm 14 22 mph 1020.7mb 74f
9:54pm 17 29 mph 1020mb 75f
8:54pm 17 25 mph 1020mb 75f
7:54pm 17 24 mph 1019.6mb 74f
7:18pm 14 25 mph 1019.3mb 74f
6:54pm 9 17 mph 1019mb 73f
5:54pm 10 21 mph 1018mb 77f
4:54pm 10
mph
1018.3mb 78f
3:54pm 14 32 mph 1018mb 80f
2:54pm 15 33 mph 1018.3mb 82f
1:54pm 14 27 mph 1018.6mb 80f
1:24pm 20 29 mph 1019mb 78f
12:54pm 16 29 mph 1019.3mb 79f
11:54am 22 32 mph 1019.6mb 80f
10:54am 16 25 mph 1020mb 78f
9:54am 17 29 mph 1020mb 79f
8:54am 22 30 mph 1019.3mb 79f